Home   Weather   Burnley   Past weeks
Flag for United Kingdom

Past Weather in Burnley, England, United Kingdom — Yesterday and Last 2 Weeks

Now
51 °F

Cool.


Feels Like: 47 °F
Forecast: N/A
Wind: 13 mph from Southwest

Location: Bingley

Current Time: Feb 16, 2019 at 3:41:53 pm

Latest Report: Feb 16, 2019 at 2:00 pm


Visibility: 17 mi

Pressure: 30.06 "Hg

Humidity: 65%

Dew Point: 40 °F

Location of BurnleyLocation

Past Weather in Burnley — Graph

°F

Burnley Temperature Yesterday

Maximum temperature yesterday: 54 °F (at 2:00 pm)
Minimum temperature yesterday: 39 °F (at 5:00 am)
Average temperature yesterday: 46 °F

High & Low Weather Summary for the Past Weeks

 TemperatureHumidityPressure
High55 °F (Feb 14, 1:00 pm)100% (Feb 5, 2:00 am)30.44 "Hg (Feb 5, 2:00 am)
Low25 °F (Feb 3, 1:00 am)39% (Feb 14, 2:00 pm)28.97 "Hg (Feb 9, 4:00 am)
Average40 °F87%29.90 "Hg
* Reported Feb 1 2:00 pm — Feb 16 2:00 pm, Burnley. Weather by CustomWeather, © 2019

Note: Actual official high and low records may vary slightly from our data, if they occured in-between our weather recording intervals... More about our weather records

Advertising

Burnley Weather History for the Previous 24 Hours

Scroll right to see more
 ConditionsComfort  
Time TempWeatherWind HumidityBarometerVisibility
2:00 pm
Sat, Feb 16
51 °FCool.13 mph65%30.06 "Hg17 mi
1:00 pm50 °FCool.16 mph68%30.07 "Hg14 mi
12:00 pm50 °FCool.14 mph67%30.09 "Hg16 mi
11:00 am49 °FCool.13 mph73%30.08 "Hg19 mi
10:00 am48 °FCool.12 mph78%30.08 "Hg9 mi
9:00 am46 °FCool.12 mph84%30.09 "Hg12 mi
8:00 am44 °FQuite cool.6 mph89%30.08 "Hg12 mi
6:00 am45 °FCool.14 mph82%30.04 "Hg14 mi
5:00 am46 °FCool.14 mph87%30.03 "Hg9 mi
4:00 am47 °FCool.14 mph91%30.02 "Hg7 mi
3:00 am47 °FCool.17 mph89%30.01 "Hg9 mi
2:00 am48 °FCool.17 mph83%30.03 "Hg9 mi
1:00 am48 °FCool.16 mph78%30.03 "Hg12 mi
12:00 am48 °FCool.16 mph73%30.05 "Hg17 mi
11:00 pm
Fri, Feb 15
50 °FCool.18 mph65%30.05 "Hg22 mi
10:00 pm51 °FCool.9 mph62%30.07 "Hg28 mi
9:00 pm47 °FCool.3 mph69%30.10 "Hg12 mi
8:00 pm47 °FCool.8 mph70%30.12 "Hg12 mi
7:00 pm44 °FQuite cool.2 mph71%30.14 "Hg9 mi
6:00 pm47 °FCool.1 mph66%30.14 "Hg10 mi
5:00 pm51 °FCool.3 mph60%30.14 "Hg8 mi
4:00 pm53 °FCool.8 mph56%30.14 "Hg11 mi
3:00 pm54 °FCool.12 mph51%30.16 "Hg12 mi
Weather by CustomWeather, © 2019

See weather overview